Location: Newark
(52.1472°N, 117.4361°W)
Time: 04:39:28
(UTC+00:00)

N. Korean satellite - Visible Passes

Search period start: 25 September 2020 00:00
Search period end: 05 October 2020 00:00
Orbit: 455 x 503 km, 97.2° (Epoch: 24 September)

Date Brightness Start Highest point End Pass type
(mag) Time Alt. Az. Time Alt. Az. Time Alt. Az.
26 Sep 9.4 12:44:37 10° NE 12:47:38 23° E 12:50:36 10° SSE visible
27 Sep 10.0 12:19:34 10° ENE 12:21:22 13° E 12:23:09 10° ESE visible
29 Sep 8.6 12:59:39 10° NNE 13:03:00 33° E 13:06:16 10° SSE visible
30 Sep 9.7 12:34:10 10° NE 12:36:46 18° E 12:39:19 10° SE visible
02 Oct 10.8 01:57:47 10° W 01:58:24 10° W 01:59:01 10° WNW visible
02 Oct 7.7 13:14:45 10° NNE 13:18:18 49° E 13:21:44 10° S visible
03 Oct 9.1 12:49:02 10° NE 12:52:06 26° E 12:55:07 10° SSE visible
04 Oct 9.9 12:23:48 10° NE 12:25:49 14° E 12:27:49 10° ESE visible
